Location: Artiguedieu
(43.5000°N, 0.5454°E)
Time: 00:24:24
(UTC+00:00)

Transit 2A Rocket - Pass Details

Date: 06 August 2021
Orbit: 586 x 916 km, 66.7° (Epoch: 19 September)

Event Time Altitude Azimuth Distance (km) Brightness Sun altitude
Rises 22:20:53 0° 321° (NW) 3,331 9.6 -25.6°
Reaches altitude 10° 22:23:24 10° 313° (NW) 2,444 8.5 -25.8°
Maximum altitude 22:28:33 36° 248° (WSW) 1,343 6.2 -26.2°
Enters shadow 22:29:23 35° 230° (SW) 1,391 6.1 -26.3°
Drops below altitude 10° 22:33:59 10° 184° (S) 2,572 - -26.6°
Sets 22:36:42 0° 176° (S) 3,527 - -26.8°
